Montoursville, PA

6:28 PM EST on February 27, 2017 (GMT -0500)
Williamsport Rgnl

Weather History for KIPT - April, 2014

Change the Weather History Date:

Saturday, April 12, 2014

  Actual Average Record
Temperature  
Mean Temperature 56 °F 49 °F  
Max Temperature 70 °F 60 °F 87 °F (1977)
Min Temperature 41 °F 38 °F 22 °F (1926)
Degree Days  
Heating Degree Days 9 16  
Month to date heating degree days 217 221  
Since 1 July heating degree days 6049 5517  
Cooling Degree Days 0 0  
Month to date cooling degree days 0 0  
Year to date cooling degree days 0 0  
Growing Degree Days 6 (Base 50)    
Moisture  
Dew Point 40 °F    
Average Humidity 62    
Maximum Humidity 92    
Minimum Humidity 31    
Precipitation  
Precipitation 0.00 in 0.11 in 0.96 in (1934)
Month to date precipitation 1.33 1.34  
Year to date precipitation 8.02 9.35  
Snow  
Snow 0.00 in 0.10 in 4.00 in (1918)
Month to date snowfall 0.0 0.8  
Since 1 July snowfall 45.9 35.7  
Snow Depth 0.00 in    
Sea Level Pressure  
Sea Level Pressure 30.16 in    
Wind  
Wind Speed 7 mph (WNW)    
Max Wind Speed 21 mph    
Max Gust Speed 26 mph    
Visibility 10 miles    
Events      
T = Trace of Precipitation, MM = Missing Value Source: NWS Daily Summary

Daily Weather History Graph

Daily Weather History Graph

Search for Another Location

Airport or City:

Trip Planner

Search our weather history database for the weather conditions in past years. The results will help you decide how hot, cold, wet, or windy it might be!

Date:

Astronomy

Apr. 12, 2014 Rise Set
Actual Time 6:32 AM EDT 7:44 PM EDT
Civil Twilight 6:04 AM EDT 8:13 PM EDT
Nautical Twilight 5:30 AM EDT 8:47 PM EDT
Astronomical Twilight 4:55 AM EDT 9:22 PM EDT
Moon 5:19 PM EDT (4/12) 5:00 AM EDT (4/12)
Length of Visible Light 14h 08m
Length of Day
13h 11m
Waxing Gibbous, 93% of the Moon is Illuminated
Apr 12
Waxing Gibbous
Apr 15
Full
Apr 22
Last Quarter
Apr 29
New
May 6
First Quarter

Hourly Weather History & Observations

Time (EDT) Temp. Windchill Dew Point Humidity Pressure Visibility Wind Dir Wind Speed Gust Speed Precip Events Conditions
12:49 AM 44.6 °F 41.4 °F 42.8 °F 93% 30.09 in 6.0 mi NNW 5.8 mph - N/A   Overcast
12:54 AM 45.0 °F 42.6 °F 43.0 °F 93% 30.09 in 7.0 mi NNW 4.6 mph - N/A   Overcast
1:54 AM 46.0 °F 43.1 °F 43.0 °F 89% 30.11 in 10.0 mi WNW 5.8 mph - N/A   Overcast
2:16 AM 46.0 °F 43.1 °F 43.0 °F 89% 30.11 in 10.0 mi West 5.8 mph - N/A   Overcast
2:54 AM 44.1 °F 41.5 °F 39.9 °F 85% 30.12 in 10.0 mi WNW 4.6 mph - N/A   Mostly Cloudy
3:15 AM 44.1 °F 40.8 °F 39.9 °F 85% 30.12 in 10.0 mi WNW 5.8 mph - N/A   Overcast
3:54 AM 44.1 °F 42.5 °F 39.9 °F 85% 30.14 in 10.0 mi WNW 3.5 mph - N/A   Overcast
4:22 AM 43.0 °F 41.3 °F 39.9 °F 89% 30.14 in 10.0 mi NW 3.5 mph - N/A   Overcast
4:54 AM 42.1 °F 39.2 °F 39.9 °F 92% 30.17 in 10.0 mi WNW 4.6 mph - N/A   Overcast
5:54 AM 44.1 °F 41.5 °F 39.9 °F 85% 30.18 in 10.0 mi NNW 4.6 mph - N/A   Overcast
6:54 AM 44.1 °F 40.8 °F 39.9 °F 85% 30.22 in 10.0 mi WNW 5.8 mph - N/A   Overcast
7:54 AM 44.1 °F 40.8 °F 41.0 °F 89% 30.24 in 10.0 mi WNW 5.8 mph - N/A   Overcast
8:54 AM 45.0 °F 41.2 °F 41.0 °F 86% 30.25 in 10.0 mi WNW 6.9 mph - N/A   Overcast
9:54 AM 46.0 °F 44.8 °F 41.0 °F 83% 30.26 in 10.0 mi West 3.5 mph - N/A   Overcast
10:11 AM 46.0 °F 44.8 °F 41.0 °F 83% 30.26 in 10.0 mi Variable 3.5 mph - N/A   Overcast
10:54 AM 48.0 °F - 41.0 °F 77% 30.27 in 10.0 mi SW 3.5 mph - N/A   Mostly Cloudy
11:03 AM 48.0 °F - 42.1 °F 80% 30.26 in 10.0 mi Calm Calm - N/A   Scattered Clouds
11:54 AM 52.0 °F - 44.1 °F 74% 30.25 in 10.0 mi Variable 3.5 mph - N/A   Clear
12:54 PM 57.9 °F - 45.0 °F 62% 30.21 in 10.0 mi ESE 5.8 mph - N/A   Clear
1:54 PM 64.0 °F - 44.1 °F 48% 30.17 in 10.0 mi Variable 4.6 mph - N/A   Clear
2:54 PM 68.0 °F - 44.1 °F 42% 30.15 in 10.0 mi ESE 8.1 mph - N/A   Clear
3:54 PM 69.1 °F - 41.0 °F 36% 30.13 in 10.0 mi ESE 6.9 mph - N/A   Mostly Cloudy
4:54 PM 69.1 °F - 39.0 °F 33% 30.12 in 10.0 mi Calm Calm - N/A   Scattered Clouds
5:54 PM 69.1 °F - 37.0 °F 31% 30.12 in 10.0 mi East 5.8 mph - N/A   Overcast
6:54 PM 66.9 °F - 37.0 °F 33% 30.10 in 10.0 mi ESE 10.4 mph - N/A   Clear
7:54 PM 64.0 °F - 36.0 °F 35% 30.10 in 10.0 mi ESE 8.1 mph - N/A   Clear
8:54 PM 62.1 °F - 36.0 °F 38% 30.11 in 10.0 mi SE 13.8 mph 20.7 mph N/A   Clear
9:54 PM 63.0 °F - 33.1 °F 33% 30.11 in 10.0 mi SSE 13.8 mph - N/A   Clear
10:54 PM 63.0 °F - 33.1 °F 33% 30.09 in 10.0 mi SE 17.3 mph 25.3 mph N/A   Clear
11:54 PM 62.1 °F - 32.0 °F 32% 30.08 in 10.0 mi SE 16.1 mph 20.7 mph N/A   Clear